Meteo pe oră la Almoines

Astăzi, 23 Ianuarie, Sâmbătă

Timp Temperatura Precipitaţii Vânt Presiune Umiditate
00:00 +6°C° 0 mm 7 m/s 752 mmHg 71%
01:00 +6°C° 0 mm 7 m/s 752 mmHg 71%
02:00 +6°C° 0 mm 8 m/s 752 mmHg 71%
03:00 +6°C° 0 mm 8 m/s 752 mmHg 71%
04:00 +6°C° 0 mm 8 m/s 752 mmHg 70%
05:00 +6°C° 0 mm 9 m/s 752 mmHg 70%
06:00 +6°C° 0 mm 9 m/s 752 mmHg 69%
07:00 +7°C° 0 mm 9 m/s 752 mmHg 67%
08:00 +8°C° 0 mm 9 m/s 752 mmHg 64%
09:00 +8°C° 0 mm 10 m/s 752 mmHg 62%
10:00 +10°C° 0 mm 9 m/s 752 mmHg 59%
11:00 +11°C° 0 mm 9 m/s 752 mmHg 56%
12:00 +12°C° 0 mm 9 m/s 752 mmHg 52%
13:00 +12°C° 0 mm 9 m/s 751 mmHg 53%
14:00 +13°C° 0 mm 8 m/s 751 mmHg 54%
15:00 +13°C° 0 mm 8 m/s 750 mmHg 54%
16:00 +12°C° 0 mm 7 m/s 750 mmHg 59%
17:00 +11°C° 0 mm 6 m/s 749 mmHg 63%
18:00 +10°C° 0 mm 5 m/s 749 mmHg 68%
19:00 +10°C° 0 mm 5 m/s 748 mmHg 68%
20:00 +9°C° 0 mm 5 m/s 748 mmHg 68%
21:00 +9°C° 0 mm 5 m/s 747 mmHg 69%
22:00 +9°C° 0 mm 6 m/s 747 mmHg 69%
23:00 +10°C° 0 mm 6 m/s 746 mmHg 69%

Mâine, 24 Ianuarie, Duminică

Timp Temperatura Precipitaţii Vânt Presiune Umiditate
00:00 +10°C° 0 mm 6 m/s 746 mmHg 69%
01:00 +11°C° 0 mm 7 m/s 745 mmHg 69%
02:00 +12°C° 0 mm 7 m/s 745 mmHg 70%
03:00 +12°C° 0 mm 7 m/s 744 mmHg 70%
04:00 +12°C° 0 mm 8 m/s 745 mmHg 67%
05:00 +12°C° 0 mm 8 m/s 745 mmHg 64%
06:00 +11°C° 0 mm 9 m/s 746 mmHg 61%
07:00 +12°C° 0 mm 9 m/s 747 mmHg 61%
08:00 +12°C° 0 mm 8 m/s 748 mmHg 60%
09:00 +12°C° 0 mm 8 m/s 749 mmHg 59%
10:00 +14°C° 0 mm 7 m/s 749 mmHg 54%
11:00 +15°C° 0 mm 6 m/s 750 mmHg 50%
12:00 +16°C° 0 mm 5 m/s 750 mmHg 45%
13:00 +16°C° 0 mm 6 m/s 750 mmHg 45%
14:00 +16°C° 0 mm 7 m/s 750 mmHg 45%
15:00 +16°C° 0 mm 8 m/s 750 mmHg 46%
16:00 +15°C° 0 mm 8 m/s 750 mmHg 51%
17:00 +12°C° 0 mm 7 m/s 751 mmHg 56%
18:00 +11°C° 0 mm 7 m/s 751 mmHg 61%
19:00 +11°C° 0 mm 7 m/s 752 mmHg 62%
20:00 +11°C° 0 mm 6 m/s 752 mmHg 62%
21:00 +10°C° 0 mm 6 m/s 752 mmHg 63%
22:00 +10°C° 0 mm 6 m/s 753 mmHg 64%
23:00 +10°C° 0 mm 6 m/s 753 mmHg 65%

Poimâine, 25 Ianuarie, Luni

Timp Temperatura Precipitaţii Vânt Presiune Umiditate
00:00 +10°C° 0 mm 6 m/s 753 mmHg 67%
01:00 +10°C° 0 mm 6 m/s 753 mmHg 68%
02:00 +9°C° 0 mm 5 m/s 753 mmHg 69%
03:00 +9°C° 0 mm 5 m/s 753 mmHg 70%
04:00 +9°C° 0 mm 5 m/s 753 mmHg 71%
05:00 +10°C° 0 mm 4 m/s 754 mmHg 72%
06:00 +10°C° 0 mm 4 m/s 754 mmHg 73%
07:00 +10°C° 0 mm 4 m/s 754 mmHg 72%
08:00 +11°C° 0 mm 4 m/s 755 mmHg 71%
09:00 +12°C° 0 mm 5 m/s 756 mmHg 69%
10:00 +13°C° 0 mm 4 m/s 756 mmHg 63%
11:00 +14°C° 0 mm 4 m/s 756 mmHg 57%
12:00 +16°C° 0 mm 3 m/s 756 mmHg 52%
13:00 +16°C° 0 mm 3 m/s 756 mmHg 52%
14:00 +16°C° 0 mm 3 m/s 755 mmHg 53%
15:00 +16°C° 0 mm 3 m/s 755 mmHg 53%
16:00 +14°C° 0 mm 3 m/s 756 mmHg 60%
17:00 +12°C° 0 mm 3 m/s 756 mmHg 67%
18:00 +11°C° 0 mm 3 m/s 756 mmHg 73%
19:00 +11°C° 0 mm 4 m/s 757 mmHg 74%
20:00 +10°C° 0 mm 4 m/s 757 mmHg 75%
21:00 +10°C° 0 mm 4 m/s 758 mmHg 76%
22:00 +10°C° 0 mm 4 m/s 758 mmHg 77%
23:00 +10°C° 0 mm 3 m/s 758 mmHg 77%

26 Ianuarie, Marţi

Timp Temperatura Precipitaţii Vânt Presiune Umiditate
00:00 +9°C° 0 mm 3 m/s 758 mmHg 77%
01:00 +9°C° 0 mm 3 m/s 758 mmHg 78%
02:00 +9°C° 0 mm 3 m/s 757 mmHg 79%
03:00 +8°C° 0 mm 4 m/s 757 mmHg 81%
04:00 +9°C° 0 mm 3 m/s 757 mmHg 82%
05:00 +9°C° 0 mm 3 m/s 757 mmHg 82%
06:00 +10°C° 0 mm 3 m/s 758 mmHg 83%
07:00 +11°C° 0 mm 3 m/s 758 mmHg 80%
08:00 +12°C° 0 mm 3 m/s 758 mmHg 76%
09:00 +15°C° 0 mm 2 m/s 759 mmHg 72%
10:00 +16°C° 0 mm 3 m/s 759 mmHg 67%
11:00 +18°C° 0 mm 3 m/s 759 mmHg 62%
12:00 +19°C° 0 mm 3 m/s 758 mmHg 57%
13:00 +20°C° 0 mm 4 m/s 758 mmHg 56%
14:00 +20°C° 0 mm 4 m/s 758 mmHg 56%
15:00 +20°C° 0 mm 5 m/s 757 mmHg 56%
16:00 +19°C° 0 mm 4 m/s 757 mmHg 59%
17:00 +18°C° 0 mm 4 m/s 757 mmHg 63%
18:00 +17°C° 0 mm 4 m/s 758 mmHg 67%
19:00 +15°C° 0 mm 4 m/s 758 mmHg 69%
20:00 +15°C° 0 mm 5 m/s 758 mmHg 71%
21:00 +15°C° 0 mm 5 m/s 758 mmHg 73%
22:00 +15°C° 0 mm 5 m/s 759 mmHg 75%
23:00 +14°C° 0 mm 5 m/s 759 mmHg 77%

27 Ianuarie, Miercuri

Timp Temperatura Precipitaţii Vânt Presiune Umiditate
00:00 +14°C° 0 mm 5 m/s 759 mmHg 79%
01:00 +14°C° 0 mm 5 m/s 759 mmHg 79%
02:00 +14°C° 0 mm 5 m/s 759 mmHg 80%
03:00 +14°C° 0 mm 5 m/s 758 mmHg 80%
04:00 +14°C° 0 mm 4 m/s 758 mmHg 81%
05:00 +14°C° 0 mm 4 m/s 758 mmHg 82%
06:00 +14°C° 0 mm 3 m/s 759 mmHg 83%
07:00 +16°C° 0 mm 3 m/s 759 mmHg 80%
08:00 +17°C° 0 mm 3 m/s 759 mmHg 77%
09:00 +17°C° 0 mm 2 m/s 759 mmHg 73%
10:00 +19°C° 0 mm 2 m/s 759 mmHg 68%
11:00 +20°C° 0 mm 2 m/s 759 mmHg 62%
12:00 +21°C° 0 mm 2 m/s 759 mmHg 56%
13:00 +21°C° 0 mm 2 m/s 759 mmHg 57%
14:00 +21°C° 0 mm 3 m/s 758 mmHg 57%
15:00 +21°C° 0 mm 3 m/s 758 mmHg 58%
16:00 +20°C° 0 mm 3 m/s 758 mmHg 64%
17:00 +18°C° 0 mm 3 m/s 758 mmHg 70%
18:00 +16°C° 0 mm 2 m/s 758 mmHg 76%
19:00 +16°C° 0 mm 2 m/s 758 mmHg 76%
20:00 +15°C° 0 mm 2 m/s 759 mmHg 77%
21:00 +15°C° 0 mm 2 m/s 759 mmHg 77%
22:00 +15°C° 0 mm 2 m/s 759 mmHg 76%
23:00 +13°C° 0 mm 3 m/s 759 mmHg 76%

28 Ianuarie, Joi

Timp Temperatura Precipitaţii Vânt Presiune Umiditate
00:00 +13°C° 0 mm 3 m/s 759 mmHg 76%
01:00 +13°C° 0 mm 3 m/s 759 mmHg 77%
02:00 +12°C° 0 mm 3 m/s 759 mmHg 78%
03:00 +13°C° 0 mm 2 m/s 759 mmHg 79%
04:00 +13°C° 0 mm 2 m/s 759 mmHg 80%
05:00 +13°C° 0 mm 2 m/s 759 mmHg 80%
06:00 +13°C° 0 mm 2 m/s 759 mmHg 81%
07:00 +14°C° 0 mm 2 m/s 759 mmHg 77%
08:00 +15°C° 0 mm 2 m/s 760 mmHg 73%
09:00 +17°C° 0 mm 2 m/s 760 mmHg 69%
10:00 +18°C° 0 mm 2 m/s 760 mmHg 63%
11:00 +20°C° 0 mm 2 m/s 760 mmHg 58%
12:00 +23°C° 0 mm 2 m/s 760 mmHg 52%
13:00 +23°C° 0 mm 2 m/s 760 mmHg 53%
14:00 +22°C° 0 mm 3 m/s 759 mmHg 53%
15:00 +22°C° 0 mm 3 m/s 759 mmHg 54%
16:00 +20°C° 0 mm 3 m/s 759 mmHg 60%
17:00 +18°C° 0 mm 3 m/s 759 mmHg 67%
18:00 +16°C° 0 mm 3 m/s 759 mmHg 74%
Arată mai mult

Formular de consimțământ

Meteoprog și furnizorii noștri de servicii pot stoca și accesa date personale, precum cookies, identificatori de dispozitiv sau alte tehnologii similare pe dispozitivul dumneavoastră și procesa astfel de date pentru a personaliza conținutul și reclamele, dar și pentru a oferi caracteristici de social media și pentru a analiza traficul.

  • Stocarea și/sau accesarea informațiilor pe dispozitivul dumneavoastră

    Cookies, identificatori de dispozitiv sau alte informații pot fi stocate sau accesate pe dispozitiv în scopurile indicate mai sus.

  • Reclame și conținut personalizat, evaluarea reclamelor și a conținutului, informații despre audiențe și dezvoltarea produselor

    Reclamele și conținutul pot fi personalizate pe baza unui profil. Pot fi adăugate date suplimentare pentru a personaliza mai bine reclamele și conținutul. Performanța reclamelor și conținutului poate fi măsurată. Pot fi obținute informații despre utilizatorii care au văzut reclamele și conținutul. Aceste date pot fi utilizate pentru a dezvolta sau îmbunătăți experiența utilizatorilor, sistemele și software-ul.

Dând clic pe ‘Sunt de acord’, permiteți utilizarea cookie-urilor menționate, a identificatorilor de dispozitiv, balizelor web sau altor tehnologii similare. Setările pot fi modificate din browser-ul dispozitivului dumneavoastră.

În anumite scopuri, interesele legitime pot prima asupra consimțământului. Puteți citi mai multe informații în acest sens în Politica privind Confidențialitatea Datelor și Cookie.